[[{"header":{"parameterUnit":"m.s-1","parameterCategory":1,"la1":30.2991,"la2":30.254,"lo1":-89.0895,"lo2":-89.0444,"dy":0.0017,"dx":0.0017,"nx":28,"ny":28,"refTime":"2025-08-24T21:00:00:Z","depth":0,"parameterNumber":2,"parameterNumberName":"U-component_of_WINDS"},"data":[0,0,0,0,0,0,0,0,0,0,0,0,0,0,0,0,0,0,0,0,0,0,0,0,0,0,0,0,0,0,0,0,0,0,0,0,0,0,0,0,0,0,0,0,0,0,0,0,0,0,0,0,0,0,0,0,0,0,-0.7997,-0.7996,0,-0.7929,-0.7928,-0.7927,-0.7873,-0.7873,-0.7872,-0.7872,-0.7799,-0.7797,-0.7796,0,0,0,0,0,0,0,0,0,0,0,0,0,-0.8077,-0.8076,-0.7997,-0.7996,-0.7995,-0.7929,-0.7928,-0.7927,-0.7873,-0.7873,-0.7872,-0.7871,-0.7799,-0.7798,-0.7796,0,0,0,0,0,0,0,0,0,0,0,0,0,-0.8029,-0.8076,-0.7997,-0.796,-0.7956,-0.7929,-0.7928,-0.7927,-0.7873,-0.7873,-0.7872,-0.7871,-0.78,-0.7798,-0.7796,-0.7798,0,0,-0.7789,-0.7788,0,0,0,0,0,0,0,0,-0.8032,-0.8026,-0.7967,-0.7963,-0.7958,-0.7909,-0.7929,-0.7883,-0.7874,-0.7905,-0.7872,-0.7871,-0.7836,-0.7831,-0.7819,-0.7795,-0.7792,-0.7789,-0.7787,-0.7787,-0.7786,0,0,0,0,0,0,0,-0.8035,-0.8029,-0.797,-0.7966,-0.7961,-0.7946,-0.7939,-0.792,-0.7875,-0.7902,-0.7898,-0.7891,-0.7833,-0.7822,-0.7817,-0.7791,-0.7789,-0.7787,-0.7786,-0.7785,-0.7763,-0.7764,0,0,0,0,0,0,-0.8045,-0.8032,-0.7972,-0.7968,-0.7994,-0.7946,-0.7937,-0.7925,-0.7876,-0.7867,-0.7892,-0.7889,-0.7826,-0.782,-0.7815,-0.7814,-0.7787,-0.7785,-0.7783,-0.7762,-0.7763,-0.7764,0,0,0,0,0,0,-0.8047,-0.804,-0.7975,-0.7999,-0.7989,-0.7945,-0.7932,-0.7924,-0.7913,-0.7868,-0.7859,-0.7888,-0.7825,-0.7818,-0.7803,-0.781,-0.7784,-0.7782,-0.7762,-0.7763,-0.7764,-0.7812,0,0,0,0,0,0,-0.8049,-0.8041,-0.8042,-0.7999,-0.7988,-0.7965,-0.7933,-0.7924,-0.791,-0.7905,-0.7862,-0.7854,-0.7824,-0.7806,-0.78,-0.7807,-0.778,-0.7761,-0.7762,-0.7763,-0.781,-0.7815,-0.7819,0,0,0,0,0,-0.8052,-0.8058,-0.8043,-0.8036,-0.7989,-0.7966,-0.7959,-0.7925,-0.791,-0.7911,-0.7882,-0.7856,-0.7811,-0.7805,-0.7798,-0.7804,-0.776,-0.7762,-0.7763,-0.7808,-0.7814,-0.7819,0,0,0,0,0,0,-0.8102,-0.8052,-0.8034,-0.8026,-0.8001,-0.7957,-0.7956,-0.7933,-0.791,-0.7906,-0.7864,-0.7855,-0.7844,-0.7822,-0.7817,-0.7803,-0.7782,-0.7782,-0.7818,-0.7823,-0.7828,-0.7833,-0.7778,0,0,0,0,0,-0.8113,-0.8099,-0.8055,-0.8053,-0.8041,-0.8001,-0.7989,-0.7965,-0.7936,-0.7925,-0.7895,-0.7867,-0.7846,-0.7834,-0.7812,-0.7806,-0.7796,-0.7807,-0.7812,-0.7816,-0.7817,-0.7811,-0.7815,-0.7769,-0.7769,-0.7769,0,0,-0.8134,-0.8104,-0.8098,-0.8062,-0.8039,-0.8025,-0.7992,-0.7978,-0.7967,-0.7922,-0.7907,-0.7883,-0.7849,-0.7839,-0.7833,-0.7821,-0.7827,-0.7818,-0.7822,-0.782,-0.7813,-0.7817,-0.7821,-0.777,-0.777,-0.777,0,0,-0.8165,-0.8141,-0.8137,-0.8115,-0.8081,-0.8054,-0.8053,-0.8012,-0.7995,-0.7979,-0.7945,-0.793,-0.7896,-0.7873,-0.7857,-0.7879,-0.7853,-0.7873,-0.7897,-0.7892,-0.7896,-0.7899,-0.7906,-0.7909,-0.7874,-0.7874,-0.7874,0,-0.8195,-0.8173,-0.8137,-0.8125,-0.811,-0.807,-0.8064,-0.8044,-0.8004,-0.7994,-0.7982,-0.7937,-0.7912,-0.7895,-0.79,-0.7889,-0.7885,-0.7877,-0.7899,-0.7901,-0.7903,-0.791,-0.7912,-0.7876,-0.7876,-0.7876,-0.7875,0,-0.8211,-0.8196,-0.8196,-0.816,-0.8144,-0.8136,-0.8097,-0.8086,-0.8063,-0.8037,-0.802,-0.7988,-0.7959,-0.7953,-0.793,-0.7933,-0.7926,-0.7907,-0.7884,-0.7911,-0.7916,-0.7918,-0.788,-0.7879,-0.7878,-0.7878,0,0,-0.8272,-0.8216,-0.8216,-0.8199,-0.8159,-0.8146,-0.8135,-0.8108,-0.8098,-0.8072,-0.8061,-0.8033,-0.8014,-0.7996,-0.797,-0.7966,-0.7984,-0.7946,-0.7945,-0.7954,-0.7984,-0.7999,-0.8002,-0.7967,-0.7967,-0.7968,-0.7986,0,-0.8296,-0.8275,-0.8242,-0.8231,-0.8216,-0.8178,-0.8168,-0.8141,-0.8117,-0.81,-0.8072,-0.8053,-0.803,-0.8019,-0.8013,-0.7983,-0.7989,-0.7981,-0.7955,-0.7955,-0.7965,-0.8005,-0.8021,-0.804,-0.7988,-0.7989,-0.7989,0,-0.8321,-0.8298,-0.8287,-0.8247,-0.8239,-0.8231,-0.8203,-0.8188,-0.8156,-0.8138,-0.8118,-0.809,-0.8075,-0.8055,-0.8033,-0.8028,-0.8015,-0.7999,-0.7999,-0.7995,-0.7973,-0.8001,-0.8045,-0.8048,-0.7992,-0.7991,-0.7991,0,-0.8367,-0.8333,-0.8321,-0.8307,-0.8261,-0.8256,-0.8236,-0.8204,-0.8189,-0.8164,-0.8154,-0.8127,-0.8113,-0.8092,-0.8057,-0.8046,-0.8038,-0.8016,-0.8022,-0.8023,-0.8023,-0.8023,-0.8065,-0.8015,-0.8015,-0.8015,-0.8015,0,-0.8397,-0.8391,-0.834,-0.8333,-0.8325,-0.8287,-0.8279,-0.8255,-0.8227,-0.8214,-0.8178,-0.8166,-0.8121,-0.8103,-0.8075,-0.8061,-0.8055,-0.8039,-0.8032,-0.8042,-0.8044,-0.8033,-0.8031,-0.8016,-0.8016,-0.8015,-0.8015,0,-0.8446,-0.8412,-0.8397,-0.8354,-0.8343,-0.8339,-0.8301,-0.8292,-0.8265,-0.8249,-0.8243,-0.8201,-0.8178,-0.8141,-0.8107,-0.8088,-0.8078,-0.8066,-0.809,-0.8085,-0.8094,-0.8093,-0.8129,-0.8132,-0.8082,-0.8082,-0.8083,0,-0.8468,-0.8462,-0.8419,-0.8408,-0.839,-0.8372,-0.8357,-0.8319,-0.8304,-0.8268,-0.8263,-0.8238,-0.8215,-0.818,-0.8146,-0.812,-0.8106,-0.8121,-0.8102,-0.8112,-0.8106,-0.8107,-0.8105,-0.8125,-0.8126,-0.8126,-0.8127,0,-0.8509,-0.8493,-0.8473,-0.8447,-0.8431,-0.8408,-0.8384,-0.8377,-0.8332,-0.8318,-0.8295,-0.8278,-0.8243,-0.8218,-0.8187,-0.8165,-0.8138,-0.8133,-0.8133,-0.8144,-0.8157,-0.8149,-0.8101,-0.8132,-0.8132,-0.8131,-0.8131,-0.8131,-0.8545,-0.8538,-0.8507,-0.8485,-0.8463,-0.8441,-0.8431,-0.8403,-0.8383,-0.8353,-0.8331,-0.8309,-0.8276,-0.8232,-0.8211,-0.8192,-0.8181,-0.8181,-0.8181,-0.8182,-0.8185,-0.816,-0.8187,-0.8186,-0.8186,-0.8186,-0.8186,0,-0.8584,-0.8562,-0.8543,-0.8511,-0.8494,-0.8471,-0.8443,-0.843,-0.8412,-0.8384,-0.8363,-0.8336,-0.8311,-0.8275,-0.8247,-0.8239,-0.8226,-0.8233,-0.8233,-0.8228,-0.8198,-0.82,-0.8244,-0.8244,-0.8244,-0.8244,-0.8244,-0.8244,-0.8603,-0.859,-0.857,-0.8545,-0.8522,-0.8501,-0.8487,-0.8466,-0.8444,-0.8415,-0.8395,-0.8372,-0.834,-0.8309,-0.8285,-0.8275,-0.8266,-0.8277,-0.8263,-0.8235,-0.823,-0.8225,-0.8227,-0.8275,-0.8276,-0.8294,-0.8295,-0.8295]},{"header":{"parameterUnit":"m.s-1","parameterCategory":1,"la1":30.2991,"la2":30.254,"lo1":-89.0895,"lo2":-89.0444,"dy":0.0017,"dx":0.0017,"nx":28,"ny":28,"refTime":"2025-08-24T21:00:00:Z","depth":0,"parameterNumber":3,"parameterNumberName":"V-component_of_WINDS"},"data":[0,0,0,0,0,0,0,0,0,0,0,0,0,0,0,0,0,0,0,0,0,0,0,0,0,0,0,0,0,0,0,0,0,0,0,0,0,0,0,0,0,0,0,0,0,0,0,0,0,0,0,0,0,0,0,0,0,0,1.8172,1.8172,0,1.8182,1.8182,1.8182,1.8178,1.8178,1.8178,1.8177,1.8186,1.8187,1.8187,0,0,0,0,0,0,0,0,0,0,0,0,0,1.8148,1.8149,1.8172,1.8172,1.8172,1.8182,1.8182,1.8182,1.8178,1.8178,1.8178,1.8177,1.8186,1.8186,1.8187,0,0,0,0,0,0,0,0,0,0,0,0,0,1.8158,1.8149,1.8172,1.8171,1.8171,1.8182,1.8182,1.8182,1.8178,1.8178,1.8177,1.8177,1.8186,1.8186,1.8187,1.8198,0,0,1.8189,1.8189,0,0,0,0,0,0,0,0,1.8158,1.8159,1.8171,1.8171,1.8171,1.8178,1.8177,1.8187,1.8178,1.8176,1.8177,1.8177,1.8184,1.8184,1.8187,1.8198,1.8199,1.8189,1.819,1.819,1.819,0,0,0,0,0,0,0,1.8157,1.8159,1.8176,1.8171,1.8172,1.817,1.8171,1.8179,1.8181,1.8176,1.8176,1.8177,1.8184,1.8186,1.8187,1.8199,1.8189,1.819,1.819,1.819,1.8218,1.8219,0,0,0,0,0,0,1.8157,1.8158,1.8175,1.8176,1.8164,1.8171,1.8172,1.8176,1.8181,1.8182,1.8177,1.8177,1.8185,1.8186,1.8187,1.82,1.819,1.819,1.8191,1.8218,1.8219,1.8219,0,0,0,0,0,0,1.8156,1.8158,1.8175,1.8167,1.8169,1.8172,1.8177,1.8177,1.818,1.8182,1.8183,1.8179,1.8185,1.8187,1.8195,1.82,1.8191,1.8191,1.8218,1.8218,1.8219,1.8225,0,0,0,0,0,0,1.8155,1.8158,1.8162,1.8167,1.817,1.8183,1.8177,1.8177,1.8181,1.818,1.8185,1.8185,1.8185,1.8194,1.8196,1.8201,1.8192,1.8217,1.8218,1.8219,1.8224,1.8225,1.8227,0,0,0,0,0,1.8155,1.8164,1.8163,1.8165,1.8175,1.8183,1.8184,1.8185,1.8181,1.8185,1.8187,1.8185,1.8199,1.8195,1.8197,1.8202,1.8217,1.8218,1.8219,1.8224,1.8225,1.8227,0,0,0,0,0,0,1.8159,1.8164,1.8163,1.8174,1.8178,1.8183,1.8188,1.8187,1.8191,1.8191,1.8191,1.8192,1.82,1.8202,1.8197,1.8212,1.8208,1.8209,1.8211,1.8212,1.8214,1.8213,1.8192,0,0,0,0,0,1.8161,1.8168,1.8172,1.8181,1.8183,1.8185,1.8189,1.8189,1.8193,1.8194,1.8197,1.82,1.8206,1.8209,1.8214,1.8225,1.8225,1.8229,1.823,1.8231,1.8232,1.8237,1.8239,1.8222,1.8222,1.8222,0,0,1.8165,1.8169,1.8173,1.8182,1.8185,1.8191,1.8187,1.8193,1.8198,1.8195,1.8203,1.8205,1.8209,1.8219,1.8223,1.8221,1.8237,1.8232,1.8233,1.8233,1.8238,1.824,1.8241,1.8222,1.8222,1.8222,0,0,1.8177,1.8181,1.8188,1.8192,1.8197,1.8198,1.82,1.8205,1.8206,1.8215,1.8213,1.8218,1.8227,1.823,1.8233,1.8245,1.8243,1.8247,1.8253,1.8258,1.8259,1.826,1.8264,1.8266,1.8248,1.8248,1.8248,0,1.8181,1.8191,1.8192,1.8199,1.8203,1.8201,1.8209,1.8212,1.8218,1.8221,1.8218,1.823,1.8232,1.8242,1.8245,1.8248,1.8249,1.8246,1.8259,1.826,1.8261,1.8265,1.8266,1.8248,1.8248,1.8248,1.8248,0,1.8196,1.8203,1.8209,1.8215,1.822,1.8227,1.8229,1.8233,1.8232,1.8234,1.8242,1.8246,1.8251,1.8254,1.8253,1.8263,1.8261,1.8259,1.8254,1.8263,1.8267,1.8268,1.8249,1.8249,1.8249,1.8248,0,0,1.821,1.8217,1.8219,1.8222,1.8228,1.8233,1.824,1.8246,1.8249,1.8254,1.8259,1.8267,1.8265,1.8268,1.8268,1.8272,1.8281,1.8269,1.8269,1.8271,1.8292,1.8293,1.8295,1.828,1.828,1.8281,1.8291,0,1.8221,1.8234,1.8235,1.8246,1.8252,1.8251,1.8257,1.8261,1.8262,1.8267,1.8269,1.8275,1.8271,1.8273,1.8278,1.8279,1.8285,1.8279,1.8284,1.8285,1.8283,1.8296,1.8298,1.8307,1.8292,1.8293,1.8293,0,1.8235,1.8241,1.8253,1.8257,1.826,1.8265,1.8271,1.8276,1.828,1.8281,1.8284,1.8284,1.8291,1.8286,1.8295,1.829,1.8293,1.8294,1.8294,1.8294,1.8289,1.8296,1.8311,1.8312,1.8295,1.8295,1.8295,0,1.8243,1.8253,1.8262,1.8264,1.827,1.8274,1.8276,1.828,1.8284,1.8289,1.8291,1.8296,1.8299,1.8303,1.8303,1.83,1.8312,1.8307,1.8312,1.8312,1.8314,1.8314,1.8329,1.8317,1.8317,1.8317,1.8317,0,1.8255,1.8262,1.8265,1.827,1.8278,1.8279,1.8287,1.8289,1.8293,1.8298,1.8297,1.8302,1.8303,1.8308,1.8308,1.8315,1.8316,1.8317,1.8317,1.8316,1.8316,1.8318,1.8317,1.8317,1.8317,1.8317,1.8317,0,1.8264,1.8267,1.8276,1.8281,1.8282,1.8288,1.8292,1.8296,1.8298,1.8305,1.8306,1.8309,1.8314,1.8316,1.8322,1.8322,1.833,1.833,1.8329,1.8329,1.8333,1.8332,1.8349,1.8351,1.8338,1.8339,1.8339,0,1.8271,1.8277,1.8283,1.8286,1.8289,1.8295,1.8298,1.83,1.8304,1.8309,1.8313,1.8318,1.8323,1.8332,1.8334,1.8339,1.8338,1.8343,1.8339,1.8338,1.8337,1.8337,1.8337,1.8344,1.8344,1.8344,1.8344,0,1.8283,1.8284,1.829,1.8296,1.83,1.8305,1.8309,1.8312,1.8314,1.8318,1.8324,1.8328,1.8334,1.834,1.8345,1.8347,1.8346,1.8346,1.8347,1.8346,1.8345,1.8345,1.8331,1.8345,1.8345,1.8345,1.8345,1.8345,1.8291,1.8296,1.8301,1.8307,1.831,1.8315,1.8319,1.8322,1.8327,1.8333,1.8333,1.8339,1.8343,1.835,1.8352,1.8357,1.8355,1.8357,1.8357,1.8358,1.8358,1.8345,1.8358,1.8358,1.8358,1.8358,1.8358,0,1.8302,1.8306,1.8311,1.8318,1.8322,1.8322,1.8326,1.833,1.8336,1.834,1.8344,1.8351,1.8356,1.8359,1.8364,1.8367,1.8367,1.8368,1.8368,1.8368,1.8359,1.8358,1.8368,1.8368,1.8368,1.8368,1.8368,1.8368,1.8309,1.8316,1.8318,1.8328,1.8331,1.8337,1.834,1.8343,1.8347,1.8354,1.8359,1.8361,1.8364,1.8369,1.8374,1.8374,1.8376,1.8378,1.8378,1.837,1.8369,1.8368,1.8366,1.8378,1.8378,1.8386,1.8386,1.8386]}]]